FLOCK 4Q 29

导读

FLOCK 4Q 29是美国Planet Labs公司Flock卫星星座中的一颗光学遥感卫星,于2023年11月11日发射升空,属于3U规格的微小卫星。该卫星搭载2900万像素传感器,在约475公里轨道高度可获取3.7米地面分辨率的观测影像,配备多光谱波段,主要用于补充地球观测星座,可为农业、林业等领域提供高质量对地观测数据服务。

Basic Information
目录编号:
58304
目录名称:
FLOCK 4Q 29
国际标识:
2023-174BA
轨道中心:
EARTH
卫星名称:
FLOCK 4Q 29
卫星全名:
--
卫星状态:
在轨 (已飞行989 天)
发射日期:
2023-11-11 UTC
国别 :
美国 (US)
星等 :
--
Orbit Information
数据来源 国际轨道数据
星历时间: 2026-07-26T13:22:47+0800
1天前
查看轨道信息
半长轴: 6755.8km
偏心率: 0.0001883
轨道倾角: 97.391°
近地点辐角 294.356°
升交点赤经 300.549°
平近点角 65.750°
近地点: 376.39km
远地点: 378.936km
周期: 92.103分钟
每日圈数: 15.634631
Detailed Information
使用方式:
暂无
2D Orbit Map
3D Orbit Map
Orbit Altitude Analysis Chart
Orbit Inclination Analysis Chart
Orbit Comprehensive Analysis Chart
View Comprehensive Chart